Regional Weather Roundup
Issued by NWS

Home | Current Version | Previous Version | Text Only | Print | Product List | Glossary Off
Versions: 1 2 3 4 5 6 7 8 9 10 11 12 13 14 15 16 17 18 19 20 21 22 23 24 25 26 27 28

000
ASUS45 KSLC 230910
RWRUT

UTAH REGIONAL WEATHER ROUNDUP
NATIONAL WEATHER SERVICE SALT LAKE CITY UT
200 AM MST MON JAN 23 2017

UTZ001>011-023>025-231000-

NORTHERN UTAH

CITY           SKY/WX    TMP DP  RH WIND       PRES   REMARKS
BRIGHAM CITY     N/A     34  32  92 S7        29.65F WCI  28
HILL AFB       LGT SNOW  32  32 100 SE8       29.62F VSB 1   WCI  25
LOGAN          LGT SNOW  29  29 100 N3        29.63F VSB 1
OGDEN          LGT SNOW  32  32 100 SE6       29.63F FOG     WCI  26
SALT LAKE CITY CLOUDY    38  31  76 SE16      29.61F WCI  29
TOOELE VALLEY  MOCLDY    41  32  70 S21G32    29.60F
WENDOVER       CLOUDY    28  27  93 CALM      29.59F
HEBER CITY     LGT SNOW  30  27  86 E5        29.64F WCI  25
WEST JORDAN    CLOUDY    34  34 100 SE24      29.63F WCI  21

$$

UTZ011>015-024>027-231000-

CENTRAL/NORTHEAST UTAH

CITY           SKY/WX    TMP DP  RH WIND       PRES   REMARKS
PROVO AIRPORT  LGT RAIN  33  31  92 W3        29.69F
MOAB/CANYONLAN CLOUDY    34  30  85 SE7       29.81F WCI  28
DELTA          MOCLDY    36  30  80 S20       29.65F WCI  25
PRICE          LGT SNOW  28  27  96 NE6       29.76F VSB 1   WCI  22
RICHFIELD      MOCLDY    37  28  70 SW31G39   29.69  WCI  25
ROOSEVELT      LGT SNOW  27  23  86 CALM      29.80S
VERNAL         LGT SNOW  23  21  92 SE3       29.77F VSB 3/4

$$

UTZ013>016-019>022-027-231000-

SOUTHERN UTAH

CITY           SKY/WX    TMP DP  RH WIND       PRES   REMARKS
BRYCE CANYON   SNOW      25  23  92 SE18      29.78S VSB 1/2 WCI  11
CEDAR CITY     CLOUDY    36  29  75 SW22G33   29.66F WCI  25
MILFORD        CLOUDY    34  31  88 S24G31    29.66F WCI  21
ST GEORGE      CLOUDY    43  36  75 E6        29.82F
HANKSVILLE     CLOUDY    37  32  81 MISG      29.83F
KANAB          CLOUDY    34  32  93 NE1       29.87
BLANDING       CLOUDY    29  29 100 SE14      30.00R VSB 1/2 WCI  18

$$

REGIONAL REPORTS     COLORADO/ARIZONA

CITY           SKY/WX    TMP DP  RH WIND       PRES   REMARKS
CRAIG, CO      CLOUDY    33  22  63 W6        29.73F WCI  28
GRAND JUNCTION CLOUDY    34  30  85 SE12      29.85R WCI  25
RIFLE, CO      CLOUDY    29  28  96 E5        29.83F WCI  24
MONTROSE, CO   CLOUDY    29  28  96 NW5       29.88R WCI  24
CORTEZ, CO     CLOUDY    31  25  78 SE13      29.95F WCI  21
COLORADO CITY  CLOUDY    36  34  93 E13       29.83F WCI  27
PAGE, AZ       MOCLDY    41  28  60 S6G18     29.86S
GRAND CANYON   CLOUDY    32  30  92 S20G29    29.89F WCI  20
KINGMAN, AZ    CLOUDY    50  30  46 S22G30    29.85F
FLAGSTAFF, AZ  LGT SNOW  29  28  96 SW22      29.94F FOG     WCI  15

$$

REGIONAL REPORTS    NEVADA/IDAHO/WYOMING

CITY           SKY/WX    TMP DP  RH WIND       PRES   REMARKS
LAS VEGAS, NV  CLOUDY    49  42  77 SE10G20   29.72F
ELY, NY        LGT SNOW  32  30  92 S25G33    29.53F FOG     WCI  19
ELKO, NV       LGT SNOW  33  30  88 CALM      29.48F FOG
POCATELLO, ID  CLOUDY    33  29  85 CALM      29.61F
BURLEY, ID     CLOUDY    32  29  88 N5        29.57F WCI  27
FORT BRIDGER,  LGT SNOW  19  19 100 CALM      29.67S
EVANSTON, WY   LGT SNOW  20  16  84 MISG      29.61F VSB 3/4
ROCK SPRINGS,  CLOUDY    27  19  72 S10       29.64F WCI  17

$$




USA.gov is the U.S. government's official web portal to all federal, state and local government web resources and services.